Weather History for Francistown, Botswana

Change the Weather History Date:

Wednesday, May 8, 2013

  Actual Average Record
Temperature  
Mean Temperature 60 °F -  
Max Temperature 78 °F 76 °F 95 °F (1998)
Min Temperature 42 °F 45 °F 35 °F (2001)
Degree Days  
Heating Degree Days 5    
Growing Degree Days 10 (Base 50)    
Moisture  
Dew Point 43 °F    
Average Humidity 54    
Maximum Humidity 82    
Minimum Humidity 21    
Precipitation  
Precipitation 0.00 in - - ()
Sea Level Pressure  
Sea Level Pressure 30.19 in    
Wind  
Wind Speed 4 mph ()    
Max Wind Speed 8 mph    
Max Gust Speed -    
Visibility 6.2 miles    
Events      
Averages and records for this station are not official NWS values.
T = Trace of Precipitation, MM = Missing Value Source: Averaged Metar Reports

Daily Weather History Graph

Daily Weather History Graph

Search for Another Location

Airport:

Trip Planner

Search our weather history database for the weather conditions in past years. The results will help you decide how hot, cold, wet, or windy it might be!

Date:

Astronomy

May. 08, 2013 Rise Set
Actual Time 6:30 AM CAT 5:42 PM CAT
Civil Twilight 6:07 AM CAT 6:05 PM CAT
Nautical Twilight 5:40 AM CAT 6:32 PM CAT
Astronomical Twilight 5:13 AM CAT 6:58 PM CAT
Moon 4:59 AM CAT (5/8) 4:40 PM CAT (5/8)
Length of Visible Light 11h 58m
Length of Day
11h 12m
Waning Crescent, 2% of the Moon is Illuminated
May 8
Waning Crescent
May 10
New
May 18
First Quarter
May 25
Full
May 31
Last Quarter

Hourly Weather History & Observations

Time (CAT) Temp. Windchill Dew Point Humidity Pressure Visibility Wind Dir Wind Speed Gust Speed Precip Events Conditions
12:00 AM 53.6 °F - 42.8 °F 67% 30.30 in - SSE 4.6 mph - N/A   Clear
1:00 AM 51.8 °F - 42.8 °F 71% 30.30 in - SE 4.6 mph - N/A   Clear
2:00 AM 48.2 °F - 42.8 °F 82% 30.27 in - SSE 4.6 mph - N/A   Clear
3:00 AM 48.2 °F - 42.8 °F 82% 30.27 in - SSE 3.5 mph - N/A   Clear
4:00 AM 46.4 °F - 41.0 °F 81% 30.27 in - Calm Calm - N/A   Clear
5:00 AM 42.8 °F 41.1 °F 37.4 °F 81% 30.24 in - South 3.5 mph - N/A   Clear
6:00 AM 42.8 °F - 35.6 °F 76% 30.18 in - SE 2.3 mph - N/A   Clear
7:00 AM 44.6 °F - 39.2 °F 81% 30.24 in - SE 2.3 mph - N/A   Clear
8:00 AM 51.8 °F - 46.4 °F 82% 30.27 in - SSE 3.5 mph - N/A   Clear
9:00 AM 60.8 °F - 46.4 °F 59% 30.27 in - ENE 3.5 mph - N/A   Clear
10:00 AM 66.2 °F - 48.2 °F 52% 30.27 in - SE 6.9 mph - N/A   Clear
11:00 AM 69.8 °F - 46.4 °F 43% 30.24 in - East 8.1 mph - N/A   Clear
12:00 PM 73.4 °F - 46.4 °F 38% 30.21 in 6.2 mi SSE 8.1 mph - N/A   Partly Cloudy
1:00 PM 75.2 °F - 44.6 °F 34% 30.18 in 6.2 mi NNE 4.6 mph - N/A   Partly Cloudy
2:00 PM 77 °F - 45 °F 21%  in 6 mi ESE 3.5 mph - -   Scattered Clouds
2:00 PM 77.0 °F - 44.6 °F 32% 30.12 in 6.2 mi ESE 3.5 mph - N/A   Partly Cloudy
3:00 PM 78.8 °F - 44.6 °F 30% 30.12 in 6.2 mi East 5.8 mph - N/A   Partly Cloudy
4:00 PM 77.0 °F - 41.0 °F 28% 30.09 in 6.2 mi North 3.5 mph - N/A   Partly Cloudy
5:00 PM 77.0 °F - 42.8 °F 29% 30.09 in 6.2 mi SSE 6.9 mph - N/A   Partly Cloudy
6:00 PM 71.6 °F - 42.8 °F 35% 30.09 in - South 5.8 mph - N/A   Clear
7:00 PM 66.2 °F - 42.8 °F 43% 30.09 in - Variable 2.3 mph - N/A   Clear
8:00 PM 64 °F - 44 °F 37%  in 6 mi SE 2.3 mph - -  
8:00 PM 64.4 °F - 44.6 °F 49% 30.12 in - Variable 2.3 mph - N/A   Clear
9:00 PM 64.4 °F - 42.8 °F 45% 30.12 in - SE 4.6 mph - N/A   Clear
10:00 PM 59.0 °F - 42.8 °F 55% 30.15 in - East 3.5 mph - N/A   Clear
11:00 PM 55.4 °F - 41.0 °F 58% 30.15 in - Variable 2.3 mph - N/A   Clear